Погода в Верхнеяркееве

Россия / Республика Башкортостан     55°27′05″N   54°18′32″E
темп.,
°C
ветер,
м/с
пор.,
м/с
влажн.,
%
обл.,
%
осадки,
мм/ч
давл.,
гПа
погр.,
м
19 мая, ср
ср1923:00+18всв512640 0.0 1019333
02:00+15всв411730 0.0 1018243
05:00+13всв410842 0.0 1019223
08:00+15всв69750 0.0 1020374
11:00+20в78560 0.0 1020795
14:00+24в67430 0.0 10201393
17:00+24вюв56375 0.0 10191545
20:00+21в3656100 0.0 1019118
20 мая, чт
чт2023:00+16в476258 0.0 1020108
02:00+14юв35650 0.0 102073
05:00+14ююв49653 0.0 1020147
08:00+17юв511621 0.0 1020362
11:00+21юв67460 0.0 1020882
14:00+24юв78370 0.0 10191821
17:00+24ююв69370 0.0 10181855
20:00+21юв49542 0.0 1016215
21 мая, пт
пт2123:00+17юв410640 0.0 1016173
02:00+16ююв4106373 0.0 1016208
05:00+14ююв497352 0.0 1016168
08:00+17ю3670100 0.0 1016283
11:00+19ююз4672100 0.6 1016975
14:00+23ююз684532 0.1 10162365
17:00+24ююз684165 0.1 10152679
20:00+20юз486318 0.0 1016408
22 мая, сб
сб2223:00+16юз34721 0.0 101865
02:00+14юз35812 0.0 101882
05:00+13юз3685100 0.0 1019108
08:00+16зюз5777100 0.0 1020362
11:00+19з5662100 0.0 10211148
14:00+20з685598 0.0 10221545
17:00+21з575292 0.0 10211375
20:00+17сз356875 0.0 1021293
23 мая, вс
вс2323:00+14ссз3585100 0.3 1021219
02:00+13с2397100 7.9 1022163
05:00+13ю0096100 13.9 1023107
08:00+14вюв3491100 0.0 1024316
11:00+17вюв3379100 0.0 1024541
14:00+19юв3471100 0.0 1023749
17:00+20юв3574100 0.0 1022396
20:00+19юв468480 0.0 1021151